Regional Weather Roundup
Issued by NWS

Home | Current Version | Previous Version | Graphics & Text | Print | Product List | Glossary On
Versions: 1 2 3 4 5 6 7 8 9 10 11 12 13 14 15 16 17 18 19 20 21 22 23 24 25 26 27 28 29 30 31 32 33 34 35 36 37 38 39 40 41 42 43 44 45 46 47 48 49 50
000
ASUS43 KTOP 041659
RWRKS

WEATHER ROUNDUP FOR KANSAS
NATIONAL WEATHER SERVICE GOODLAND KS
1200 PM CDT SAT JUL 04 2015

NOTE:  "FAIR" INDICATES FEW OR NO CLOUDS BELOW 12,000 FEET WITH NO
SIGNIFICANT WEATHER AND/OR OBSTRUCTIONS TO VISIBILITY.

KSZ001>006-013>018-027>032-041>047-041800-
NORTHWEST KANSAS

CITY           SKY/WX    TMP DP  RH WIND       PRES   REMARKS
GOODLAND       SUNNY     83  62  49 S20G25    29.97S
HAYS           SUNNY     82  63  51 S17G24    29.98S
HILL CITY      LGT RAIN  86  63  45 S14G24    29.96F
RUSSELL        SUNNY     82  65  56 S14       29.97F
$$

KSZ061>065-074>080-084>089-041800-
SOUTHWEST KANSAS

CITY           SKY/WX    TMP DP  RH WIND       PRES   REMARKS
DODGE CITY     SUNNY     83  62  49 S12G22    30.00F
ELKHART          N/A     85  60  42 S16         N/A
GARDEN CITY    SUNNY     81  63  54 SE17      29.98F
GREAT BEND     SUNNY     81  64  57 S15       30.00S
LIBERAL        MOSUNNY   84  63  48 S10       30.02S
$$

KSZ066>073-081>083-090>101-041800-
SOUTHEAST KANSAS

CITY           SKY/WX    TMP DP  RH WIND       PRES   REMARKS
CHANUTE        SUNNY     81  66  60 VRB7      30.01S
COFFEYVILLE    MOSUNNY   85  67  54 VRB5      29.99S
HUTCHINSON     SUNNY     83  64  52 SE12      30.00F
MEDICINE LODGE   N/A     84  65  52 SE9       29.97F
NEWTON         SUNNY     81  63  54 SE6       30.04S
PARSONS        MOSUNNY   83  69  62 VRB3      30.01F
WICHITA INTL   MOSUNNY   82  65  56 SE10      30.00S
WICHITA JABRA  SUNNY     82  64  54 SE8       30.00S
WINFIELD       SUNNY     84  65  52 E6        30.00F
$$

KSZ007>012-019>026-033>040-048>060-102>105-041800-
NORTHEAST KANSAS

CITY           SKY/WX    TMP DP  RH WIND       PRES   REMARKS
CONCORDIA      PTSUNNY   79  63  57 SE12      30.00S
EMPORIA        SUNNY     81  61  50 E10       30.01F
LAWRENCE       SUNNY     79  63  57 E6        30.02F
MANHATTAN      MOSUNNY   81  60  48 VRB5      30.00S
OLATHE IND     SUNNY     78  60  53 E5        30.03S
OLATHE EXE     SUNNY     76  61  59 E5        30.02F
SALINA         MOSUNNY   85  63  47 SE13      29.99F
TOPEKA BILLARD SUNNY     79  62  56 SE7       30.01F
TOPEKA FORBES  MOSUNNY   79  62  56 SE6       30.02S
$$


USA.gov is the U.S. government's official web portal to all federal, state and local government web resources and services.